Hourly Data Report for May 18, 2012

All times are specified in Local Standard Time (LST). Add 1 hour to adjust for Daylight Saving Time where and when it is observed.

YARMOUTH A
NOVA SCOTIA

43°49'37.000" N
66°05'17.000" W
42.90 m
8206495
71603
YQI

Download Data

Hourly Data (May 2012)
Hourly Data Report for May 18, 2012
Temp Definition
°C
Dew Point Temp Definition
°C
Rel Hum Definition
%
Wind Dir Definition
10's deg

Wind Spd Definition
km/h
Visibility Definition
km
Stn Press Definition
kPa
Hmdx Definition


Wind Chill Definition


Weather Definition


TIME
00:00 7.0 4.7 85 33 10 10.0 101.50     LegendNANA
01:00 7.0 3.1 76 36 11 10.0 101.52     LegendNANA
02:00 6.9 2.8 75 0 7 10.0 101.59     Mainly Clear
03:00 6.7 2.6 75   0 10.0 101.59     LegendNANA
04:00 5.1 1.9 80   0 10.0 101.66     LegendNANA
05:00 6.1 1.6 73 25 7 10.0 101.69     Mainly Clear
06:00 7.7 4.3 79 25 10 10.0 101.76     LegendNANA
07:00 9.9 5.7 75 27 8 10.0 101.84     LegendNANA
08:00 12.1 5.5 64 29 13 10.0 101.88     Mainly Clear
09:00 13.6 4.8 55 30 21 10.0 101.88     LegendNANA
10:00 14.6 4.1 49 31 14 10.0 101.85     LegendNANA
11:00 14.7 3.6 47 31 13 10.0 101.88     Cloudy
12:00 14.0 5.2 55 28 14 10.0 101.91     LegendNANA
13:00 14.2 3.7 49 29 17 10.0 101.88     LegendNANA
14:00 14.4 3.0 46 29 18 10.0 101.87     Cloudy
15:00 14.5 3.1 46 28 17 10.0 101.84     LegendNANA
16:00 14.4 2.4 44 26 17 10.0 101.77     LegendNANA
17:00 13.2 5.7 60 25 18 10.0 101.76     Cloudy
18:00 12.5 4.5 58 24 15 10.0 101.74     LegendNANA
19:00 11.3 4.8 64 23 13 10.0 101.78     LegendNANA
20:00 9.8 5.0 72 24 16 10.0 101.81     Cloudy
21:00 8.6 5.5 81 24 11 10.0 101.80     LegendNANA
22:00 9.2 4.8 74 24 10 10.0 101.83     LegendNANA
23:00 8.6 5.9 83 24 8 10.0 101.83     Cloudy

Notes on Data Quality.

Legend

  • E = Estimated
  • M = Missing
  • NA = Not Available
Date modified: